Weather History for Bradshaw AFB, HI

Change the Weather History Date:

Saturday, September 7, 2013

  Actual Average Record
Temperature  
Mean Temperature 60 °F -  
Max Temperature 73 °F 70 °F 77 °F (2004)
Min Temperature 46 °F 50 °F 44 °F (2012)
Degree Days  
Heating Degree Days 6    
Growing Degree Days 10 (Base 50)    
Moisture  
Dew Point 48 °F    
Average Humidity 55    
Maximum Humidity 94    
Minimum Humidity 26    
Precipitation  
Precipitation 0.00 in - - ()
Sea Level Pressure  
Sea Level Pressure 30.34 in    
Wind  
Wind Speed 12 mph (SSE)    
Max Wind Speed 25 mph    
Max Gust Speed 34 mph    
Visibility 11 miles    
Events      
Averages and records for this station are not official NWS values.
T = Trace of Precipitation, MM = Missing Value Source: NWS Daily Summary

Daily Weather History Graph

Daily Weather History Graph

Search for Another Location

Airport:

Trip Planner

Search our weather history database for the weather conditions in past years. The results will help you decide how hot, cold, wet, or windy it might be!

Date:

Astronomy

Sep. 07, 2013 Rise Set
Actual Time 6:08 AM HST 6:31 PM HST
Civil Twilight 5:46 AM HST 6:53 PM HST
Nautical Twilight 5:20 AM HST 7:19 PM HST
Astronomical Twilight 4:54 AM HST 7:45 PM HST
Moon 8:07 AM HST (9/7) 8:06 PM HST (9/7)
Length of Visible Light 13h 07m
Length of Day
12h 23m
Waxing Crescent, 6% of the Moon is Illuminated
Sep 7
Waxing Crescent
Sep 12
First Quarter
Sep 19
Full
Sep 26
Last Quarter
Oct 4
New

Hourly Weather History & Observations

Time (HST) Temp. Dew Point Humidity Pressure Visibility Wind Dir Wind Speed Gust Speed Precip Events Conditions
12:56 AM 50.2 °F 40.3 °F 69% 30.36 in 9.0 mi ESE 3.5 mph - N/A   Clear
1:56 AM 49.1 °F 39.0 °F 68% 30.35 in 12.0 mi ESE 5.8 mph - N/A   Clear
2:56 AM 50.2 °F 41.5 °F 72% 30.33 in 12.0 mi SE 2.3 mph - N/A   Clear
3:56 AM 48.6 °F 37.4 °F 65% 30.33 in 12.0 mi ESE 2.3 mph - N/A   Clear
4:56 AM 47.1 °F 37.4 °F 69% 30.33 in 12.0 mi ESE 2.3 mph - N/A   Clear
5:56 AM 46.6 °F 39.0 °F 75% 30.34 in 12.0 mi East 4.6 mph - N/A   Clear
6:56 AM 53.4 °F 37.2 °F 54% 30.35 in 12.0 mi SE 6.9 mph - N/A   Clear
7:56 AM 60.1 °F 50.7 °F 71% 30.36 in 12.0 mi SE 12.7 mph 24.2 mph N/A   Clear
8:56 AM 64.0 °F 50.9 °F 62% 30.35 in 12.0 mi SSE 19.6 mph 31.1 mph N/A   Clear
9:21 AM 66.2 °F 51.8 °F 60% 30.35 in 12.0 mi SSE 17.3 mph 29.9 mph N/A   Clear
9:29 AM 64.4 °F 51.8 °F 64% 30.36 in 12.0 mi South 18.4 mph 29.9 mph N/A   Clear
9:30 AM 64.4 °F 51.8 °F 64% 30.36 in 12.0 mi SSW 12.7 mph 26.5 mph N/A   Clear
9:36 AM 66.2 °F 51.8 °F 60% 30.36 in 10.0 mi South 16.1 mph 28.8 mph N/A   Clear
9:48 AM 68.0 °F 50.0 °F 52% 30.36 in 9.0 mi SSE 18.4 mph 29.9 mph N/A   Clear
9:52 AM 66.2 °F 50.0 °F 56% 30.36 in 10.0 mi SE 18.4 mph 31.1 mph N/A   Clear
9:56 AM 66.7 °F 50.7 °F 56% 30.36 in 10.0 mi SSE 17.3 mph 31.1 mph N/A   Clear
9:57 AM 66.2 °F 50.0 °F 56% 30.36 in 10.0 mi South 18.4 mph 31.1 mph N/A   Clear
9:58 AM 66.2 °F 50.0 °F 56% 30.35 in 10.0 mi South 18.4 mph 31.1 mph N/A   Clear
9:59 AM 66.2 °F 50.0 °F 56% 30.35 in 9.0 mi SE 19.6 mph 31.1 mph N/A   Clear
10:05 AM 68.0 °F 50.0 °F 52% 30.36 in 9.0 mi South 15.0 mph 32.2 mph N/A   Clear
10:18 AM 66.2 °F 50.0 °F 56% 30.36 in 12.0 mi SSE 19.6 mph 28.8 mph N/A   Clear
10:21 AM 66.2 °F 51.8 °F 60% 30.37 in 12.0 mi South 16.1 mph 27.6 mph N/A   Clear
10:30 AM 68.0 °F 50.0 °F 52% 30.36 in 10.0 mi SSE 19.6 mph 32.2 mph N/A   Clear
10:42 AM 68.0 °F 51.8 °F 56% 30.36 in 11.0 mi South 17.3 mph 31.1 mph N/A   Clear
10:43 AM 68.0 °F 50.0 °F 52% 30.35 in 11.0 mi SSW 15.0 mph 31.1 mph N/A   Clear
10:45 AM 68.0 °F 51.8 °F 56% 30.35 in 10.0 mi SSE 20.7 mph 33.4 mph N/A   Clear
10:50 AM 66.2 °F 51.8 °F 60% 30.35 in 8.0 mi SSW 21.9 mph 34.5 mph N/A   Partly Cloudy
10:56 AM 66.7 °F 51.6 °F 58% 30.36 in 8.0 mi South 20.7 mph 34.5 mph N/A   Partly Cloudy
10:57 AM 68.0 °F 51.8 °F 56% 30.35 in 9.0 mi SSE 21.9 mph 34.5 mph N/A   Partly Cloudy
11:01 AM 68.0 °F 50.0 °F 52% 30.35 in 10.0 mi SE 20.7 mph 31.1 mph N/A   Partly Cloudy
11:20 AM 68.0 °F 50.0 °F 52% 30.35 in 12.0 mi South 15.0 mph 31.1 mph N/A   Clear
11:24 AM 68.0 °F 50.0 °F 52% 30.35 in 11.0 mi SSE 25.3 mph 33.4 mph N/A   Clear
11:37 AM 69.8 °F 48.2 °F 46% 30.34 in 12.0 mi SE 18.4 mph 29.9 mph N/A   Partly Cloudy
11:38 AM 69.8 °F 48.2 °F 46% 30.34 in 12.0 mi SE 19.6 mph 29.9 mph N/A   Partly Cloudy
11:42 AM 69.8 °F 50.0 °F 49% 30.34 in 10.0 mi South 19.6 mph 33.4 mph N/A   Partly Cloudy
11:43 AM 69.8 °F 50.0 °F 49% 30.35 in 11.0 mi South 16.1 mph 33.4 mph N/A   Partly Cloudy
11:44 AM 69.8 °F 50.0 °F 49% 30.35 in 9.0 mi SE 15.0 mph 33.4 mph N/A   Partly Cloudy
11:50 AM 69.8 °F 48.2 °F 46% 30.35 in 10.0 mi SE 16.1 mph 33.4 mph N/A   Partly Cloudy
11:56 AM 70.2 °F 48.7 °F 46% 30.34 in 10.0 mi SE 12.7 mph 28.8 mph N/A   Partly Cloudy
11:57 AM 71.6 °F 48.2 °F 43% 30.35 in 12.0 mi South 17.3 mph 28.8 mph N/A   Partly Cloudy
11:58 AM 71.6 °F 46.4 °F 41% 30.34 in 12.0 mi SSW 16.1 mph 28.8 mph N/A   Partly Cloudy
12:00 PM 71.6 °F 48.2 °F 43% 30.34 in 12.0 mi SSE 12.7 mph 28.8 mph N/A   Partly Cloudy
12:29 PM 71.6 °F 46.4 °F 41% 30.33 in 12.0 mi South 16.1 mph 28.8 mph N/A   Clear
12:45 PM 71.6 °F 46.4 °F 41% 30.32 in 12.0 mi South 16.1 mph 26.5 mph N/A   Partly Cloudy
12:48 PM 73.4 °F 44.6 °F 36% 30.32 in 10.0 mi SSE 20.7 mph 32.2 mph N/A   Partly Cloudy
12:57 PM 72.3 °F 46.4 °F 40% 30.32 in 12.0 mi SSE 17.3 mph 32.2 mph N/A   Partly Cloudy
12:58 PM 71.6 °F 46.4 °F 41% 30.32 in 12.0 mi South 13.8 mph 32.2 mph N/A   Partly Cloudy
1:51 PM 71.6 °F 42.8 °F 35% 30.31 in 12.0 mi South 16.1 mph 28.8 mph N/A   Clear
1:56 PM 71.6 °F 43.9 °F 37% 30.30 in 12.0 mi South 18.4 mph 28.8 mph N/A   Clear
1:57 PM 73.4 °F 41.0 °F 31% 30.31 in 12.0 mi SE 19.6 mph 28.8 mph N/A   Partly Cloudy
1:59 PM 73.4 °F 42.8 °F 33% 30.31 in 12.0 mi South 15.0 mph 27.6 mph N/A   Partly Cloudy
2:06 PM 71.6 °F 41.0 °F 33% 30.30 in 12.0 mi SE 16.1 mph 29.9 mph N/A   Partly Cloudy
2:56 PM 71.6 °F 34.9 °F 26% 30.29 in 12.0 mi SSE 19.6 mph 27.6 mph N/A   Clear
3:56 PM 70.0 °F 46.6 °F 43% 30.29 in 12.0 mi SSE 13.8 mph 25.3 mph N/A   Clear
4:44 PM 68.0 °F 48.2 °F 49% 30.29 in 12.0 mi South 15.0 mph 27.6 mph N/A   Clear
4:46 PM 68.0 °F 46.4 °F 46% 30.29 in 12.0 mi SE 15.0 mph 27.6 mph N/A   Clear
4:50 PM 66.2 °F 46.4 °F 49% 30.29 in 12.0 mi South 13.8 mph 26.5 mph N/A   Clear
4:52 PM 68.0 °F 46.4 °F 46% 30.29 in 12.0 mi SE 15.0 mph 26.5 mph N/A   Clear
4:56 PM 67.3 °F 47.1 °F 48% 30.29 in 12.0 mi SE 18.4 mph 29.9 mph N/A   Clear
5:07 PM 68.0 °F 44.6 °F 43% 30.30 in 12.0 mi South 15.0 mph 23.0 mph N/A   Clear
5:47 PM 64.4 °F 50.0 °F 59% 30.30 in 12.0 mi South 11.5 mph 27.6 mph N/A   Clear
5:56 PM 63.7 °F 49.5 °F 60% 30.30 in 12.0 mi SE 17.3 mph 25.3 mph N/A   Clear
6:56 PM 61.0 °F 50.5 °F 68% 30.32 in 12.0 mi East 9.2 mph 20.7 mph N/A   Clear
7:56 PM 57.4 °F 54.1 °F 89% 30.34 in 11.0 mi WSW 2.3 mph - N/A   Clear
8:56 PM 55.9 °F 52.0 °F 87% 30.36 in 12.0 mi ESE 2.3 mph - N/A   Clear
9:56 PM 56.5 °F 51.4 °F 83% 30.37 in 12.0 mi SE 2.3 mph - N/A   Partly Cloudy
10:36 PM 59.0 °F 51.8 °F 77% 30.36 in 12.0 mi WNW 2.3 mph - N/A   Mostly Cloudy
10:56 PM 58.5 °F 53.2 °F 83% 30.35 in 12.0 mi South 4.6 mph - N/A   Mostly Cloudy
11:06 PM 57.2 °F 51.8 °F 82% 30.35 in 12.0 mi West 4.6 mph 12.7 mph N/A   Scattered Clouds
11:56 PM 54.7 °F 52.9 °F 94% 30.35 in 12.0 mi WSW 5.8 mph - N/A   Clear